Time,TemperatureF,DewpointF,PressureIn,WindDirection,WindDirectionDegrees,WindSpeedMPH,WindSpeedGustMPH,Humidity,HourlyPrecipIn,Conditions,Clouds,dailyrainin,SoftwareType,DateUTC
2013-01-31 00:00:00,52.9,50.4,29.39,SE,144,1.0,5.0,91,0.00,,,0.01,meteohub,2013-01-31 05:00:00,
2013-01-31 00:01:00,52.7,50.7,29.40,SE,144,0.0,5.0,93,0.01,,,0.02,meteohub,2013-01-31 05:01:00,
2013-01-31 00:06:00,52.3,50.7,29.41,WNW,302,0.0,5.0,94,0.01,,,0.02,meteohub,2013-01-31 05:06:00,
2013-01-31 00:11:00,52.5,51.1,29.40,SW,227,0.0,4.0,95,0.02,,,0.03,meteohub,2013-01-31 05:11:00,
2013-01-31 00:16:00,52.7,51.3,29.39,SW,227,0.0,4.0,95,0.04,,,0.05,meteohub,2013-01-31 05:16:00,
2013-01-31 00:21:00,52.7,51.3,29.39,East,88,1.0,3.0,95,0.05,,,0.06,meteohub,2013-01-31 05:21:00,
2013-01-31 00:26:00,52.5,51.1,29.37,East,88,0.0,5.0,95,0.06,,,0.07,meteohub,2013-01-31 05:26:00,
2013-01-31 00:31:00,52.3,50.9,29.36,ESE,117,3.0,5.0,95,0.06,,,0.07,meteohub,2013-01-31 05:31:00,
2013-01-31 00:36:00,52.2,51.1,29.35,ESE,117,0.0,5.0,96,0.07,,,0.08,meteohub,2013-01-31 05:36:00,
2013-01-31 00:41:00,51.8,50.2,29.35,ESE,117,0.0,5.0,94,0.07,,,0.08,meteohub,2013-01-31 05:41:00,
2013-01-31 00:46:00,51.4,50.4,29.35,ESE,117,0.0,4.0,96,0.07,,,0.08,meteohub,2013-01-31 05:46:00,
2013-01-31 00:51:00,51.3,50.2,29.34,ESE,117,0.0,2.0,96,0.07,,,0.08,meteohub,2013-01-31 05:51:00,
2013-01-31 00:56:00,51.4,50.5,29.32,ESE,117,0.0,2.0,97,0.07,,,0.09,meteohub,2013-01-31 05:56:00,
2013-01-31 01:01:00,51.4,50.4,29.31,ESE,117,0.0,2.0,96,0.08,,,0.10,meteohub,2013-01-31 06:01:00,
2013-01-31 01:06:00,51.4,50.5,29.33,ESE,117,0.0,2.0,97,0.08,,,0.10,meteohub,2013-01-31 06:06:00,
2013-01-31 01:11:00,51.3,50.2,29.29,ESE,117,2.0,2.0,96,0.06,,,0.10,meteohub,2013-01-31 06:11:00,
2013-01-31 01:16:00,51.1,50.2,29.29,ESE,117,0.0,2.0,97,0.05,,,0.11,meteohub,2013-01-31 06:16:00,
2013-01-31 01:21:00,51.1,50.2,29.29,East,92,3.0,3.0,97,0.05,,,0.11,meteohub,2013-01-31 06:21:00,
2013-01-31 01:27:00,51.3,50.4,29.28,SE,138,2.0,4.0,97,0.04,,,0.11,meteohub,2013-01-31 06:27:00,
2013-01-31 01:32:00,51.3,50.4,29.28,South,188,1.0,7.0,97,0.04,,,0.11,meteohub,2013-01-31 06:32:00,
2013-01-31 01:37:00,51.3,50.4,29.28,South,190,4.0,8.0,97,0.03,,,0.11,meteohub,2013-01-31 06:37:00,
2013-01-31 01:42:00,51.3,50.7,29.27,South,173,5.0,10.0,98,0.04,,,0.12,meteohub,2013-01-31 06:42:00,
2013-01-31 01:47:00,51.3,50.4,29.26,SSE,165,6.0,10.0,97,0.04,,,0.12,meteohub,2013-01-31 06:47:00,
2013-01-31 01:52:00,51.1,50.2,29.25,SSE,158,8.0,10.0,97,0.04,,,0.13,meteohub,2013-01-31 06:52:00,
2013-01-31 01:57:00,50.9,50.0,29.25,SSW,209,7.0,12.0,97,0.04,,,0.13,meteohub,2013-01-31 06:57:00,
2013-01-31 02:02:00,50.7,49.8,29.23,South,180,1.0,12.0,97,0.04,,,0.14,meteohub,2013-01-31 07:02:00,
2013-01-31 02:07:00,50.7,49.8,29.22,South,188,4.0,12.0,97,0.04,,,0.14,meteohub,2013-01-31 07:07:00,
2013-01-31 02:12:00,50.7,49.6,29.22,South,170,3.0,10.0,96,0.04,,,0.14,meteohub,2013-01-31 07:12:00,
2013-01-31 02:17:00,50.5,49.5,29.20,SSW,197,4.0,8.0,96,0.04,,,0.15,meteohub,2013-01-31 07:17:00,
2013-01-31 02:22:00,51.4,50.5,29.21,WNW,295,12.0,14.0,97,0.06,,,0.16,meteohub,2013-01-31 07:22:00,
2013-01-31 02:27:00,52.5,51.4,29.19,South,184,5.0,25.0,96,0.07,,,0.18,meteohub,2013-01-31 07:27:00,
2013-01-31 02:32:00,52.0,50.4,29.20,SSW,209,5.0,25.0,94,0.09,,,0.20,meteohub,2013-01-31 07:32:00,
2013-01-31 02:37:00,51.8,50.7,29.19,South,182,9.0,25.0,96,0.09,,,0.20,meteohub,2013-01-31 07:37:00,
2013-01-31 02:42:00,51.6,50.5,29.18,SSE,148,5.0,13.0,96,0.10,,,0.22,meteohub,2013-01-31 07:42:00,
2013-01-31 02:47:00,51.1,50.0,29.16,SSW,199,7.0,10.0,96,0.10,,,0.23,meteohub,2013-01-31 07:47:00,
2013-01-31 02:52:00,50.4,49.3,29.15,South,182,5.0,10.0,96,0.10,,,0.23,meteohub,2013-01-31 07:52:00,
2013-01-31 02:57:00,50.2,49.3,29.16,SSE,163,5.0,11.0,97,0.10,,,0.23,meteohub,2013-01-31 07:57:00,
2013-01-31 03:02:00,50.2,49.3,29.14,WSW,238,4.0,13.0,97,0.09,,,0.23,meteohub,2013-01-31 08:02:00,
2013-01-31 03:07:00,50.4,49.5,29.13,SSW,196,4.0,13.0,97,0.10,,,0.24,meteohub,2013-01-31 08:07:00,
2013-01-31 03:12:00,50.4,49.5,29.12,South,182,2.0,12.0,97,0.10,,,0.24,meteohub,2013-01-31 08:12:00,
2013-01-31 03:17:00,50.4,49.5,29.12,SSW,205,6.0,12.0,97,0.09,,,0.24,meteohub,2013-01-31 08:17:00,
2013-01-31 03:22:00,50.5,49.6,29.10,South,181,4.0,12.0,97,0.08,,,0.25,meteohub,2013-01-31 08:22:00,
2013-01-31 03:27:00,50.7,49.8,29.10,SSW,213,7.0,11.0,97,0.08,,,0.27,meteohub,2013-01-31 08:27:00,
2013-01-31 03:32:00,50.9,50.0,29.08,SE,146,4.0,11.0,97,0.09,,,0.29,meteohub,2013-01-31 08:32:00,
2013-01-31 03:37:00,50.9,50.0,29.07,SSW,198,2.0,11.0,97,0.10,,,0.31,meteohub,2013-01-31 08:37:00,
2013-01-31 03:42:00,51.1,50.2,29.07,South,172,3.0,11.0,97,0.11,,,0.33,meteohub,2013-01-31 08:42:00,
2013-01-31 03:47:00,51.6,50.7,29.07,WSW,239,1.0,9.0,97,0.12,,,0.34,meteohub,2013-01-31 08:47:00,
2013-01-31 03:52:00,52.0,51.4,29.07,WNW,288,0.0,9.0,98,0.13,,,0.36,meteohub,2013-01-31 08:52:00,
2013-01-31 03:57:00,52.2,51.3,29.06,NW,318,0.0,5.0,97,0.15,,,0.38,meteohub,2013-01-31 08:57:00,
2013-01-31 04:02:00,52.2,51.3,29.06,West,271,1.0,4.0,97,0.16,,,0.39,meteohub,2013-01-31 09:02:00,
2013-01-31 04:07:00,52.0,51.1,29.05,West,271,0.0,5.0,97,0.17,,,0.41,meteohub,2013-01-31 09:07:00,
2013-01-31 04:12:00,51.8,50.9,29.05,WNW,291,1.0,5.0,97,0.18,,,0.42,meteohub,2013-01-31 09:12:00,
2013-01-31 04:17:00,51.8,50.9,29.05,WNW,291,1.0,4.0,97,0.19,,,0.43,meteohub,2013-01-31 09:17:00,
2013-01-31 04:22:00,52.0,51.4,29.04,North,355,2.0,6.0,98,0.20,,,0.46,meteohub,2013-01-31 09:22:00,
2013-01-31 04:27:00,52.2,51.6,29.04,NW,306,3.0,6.0,98,0.20,,,0.47,meteohub,2013-01-31 09:27:00,
2013-01-31 04:32:00,52.2,51.3,29.04,WNW,288,1.0,6.0,97,0.20,,,0.49,meteohub,2013-01-31 09:32:00,
2013-01-31 04:37:00,52.2,51.6,29.04,WSW,247,2.0,6.0,98,0.19,,,0.51,meteohub,2013-01-31 09:37:00,
2013-01-31 04:42:00,52.3,51.8,29.03,West,266,1.0,8.0,98,0.18,,,0.52,meteohub,2013-01-31 09:42:00,
2013-01-31 04:48:00,52.3,51.8,29.03,West,270,3.0,8.0,98,0.20,,,0.55,meteohub,2013-01-31 09:48:00,
2013-01-31 04:53:00,52.3,51.8,29.03,West,262,4.0,6.0,98,0.19,,,0.56,meteohub,2013-01-31 09:53:00,
2013-01-31 04:58:00,52.7,52.2,29.03,South,178,5.0,6.0,98,0.18,,,0.57,meteohub,2013-01-31 09:58:00,
2013-01-31 05:02:00,52.5,51.6,29.03,SW,228,0.0,10.0,97,0.18,,,0.58,meteohub,2013-01-31 10:02:00,
2013-01-31 05:07:00,52.2,51.3,29.02,SW,221,6.0,10.0,97,0.18,,,0.59,meteohub,2013-01-31 10:07:00,
2013-01-31 05:12:00,52.2,51.6,29.03,WSW,252,5.0,10.0,98,0.16,,,0.59,meteohub,2013-01-31 10:12:00,
2013-01-31 05:17:00,52.5,51.6,29.03,WNW,285,0.0,9.0,97,0.17,,,0.61,meteohub,2013-01-31 10:17:00,
2013-01-31 05:23:00,52.5,51.6,29.00,WNW,290,0.0,9.0,97,0.16,,,0.62,meteohub,2013-01-31 10:23:00,
2013-01-31 05:28:00,52.9,52.0,29.00,West,275,1.0,8.0,97,0.17,,,0.65,meteohub,2013-01-31 10:28:00,
2013-01-31 05:32:00,53.1,52.0,28.98,SW,236,4.0,8.0,96,0.19,,,0.68,meteohub,2013-01-31 10:32:00,
2013-01-31 05:38:00,53.1,52.0,28.97,West,271,2.0,8.0,96,0.18,,,0.69,meteohub,2013-01-31 10:38:00,
2013-01-31 05:43:00,53.1,52.0,29.00,West,261,0.0,8.0,96,0.16,,,0.70,meteohub,2013-01-31 10:43:00,
2013-01-31 05:48:00,53.1,52.0,29.02,WSW,257,4.0,7.0,96,0.16,,,0.71,meteohub,2013-01-31 10:48:00,
2013-01-31 05:53:00,53.4,52.0,29.01,West,279,2.0,17.0,95,0.17,,,0.73,meteohub,2013-01-31 10:53:00,
2013-01-31 05:58:00,53.4,52.0,29.00,WSW,240,13.0,17.0,95,0.18,,,0.75,meteohub,2013-01-31 10:58:00,
2013-01-31 06:03:00,53.6,52.0,28.98,WSW,245,2.0,17.0,94,0.20,,,0.78,meteohub,2013-01-31 11:03:00,
2013-01-31 06:08:00,53.6,52.0,28.97,NW,309,4.0,15.0,94,0.20,,,0.79,meteohub,2013-01-31 11:08:00,
2013-01-31 06:13:00,53.4,51.8,28.97,WSW,241,7.0,15.0,94,0.21,,,0.81,meteohub,2013-01-31 11:13:00,
2013-01-31 06:18:00,53.4,51.8,28.97,SW,223,7.0,13.0,94,0.22,,,0.83,meteohub,2013-01-31 11:18:00,
2013-01-31 06:23:00,53.4,51.8,28.96,West,275,5.0,11.0,94,0.20,,,0.83,meteohub,2013-01-31 11:23:00,
2013-01-31 06:28:00,53.2,51.6,28.92,SSW,194,5.0,11.0,94,0.18,,,0.84,meteohub,2013-01-31 11:28:00,
2013-01-31 06:33:00,53.4,51.4,28.94,South,178,2.0,12.0,93,0.17,,,0.85,meteohub,2013-01-31 11:33:00,
2013-01-31 06:38:00,53.2,51.3,28.92,SSW,205,2.0,12.0,93,0.16,,,0.85,meteohub,2013-01-31 11:38:00,
2013-01-31 06:43:00,53.2,51.3,28.92,West,277,1.0,12.0,93,0.14,,,0.85,meteohub,2013-01-31 11:43:00,
2013-01-31 06:48:00,52.9,50.9,28.92,SW,226,4.0,9.0,93,0.14,,,0.85,meteohub,2013-01-31 11:48:00,
2013-01-31 06:53:00,53.2,50.9,28.95,WNW,296,4.0,8.0,92,0.11,,,0.85,meteohub,2013-01-31 11:53:00,
2013-01-31 06:58:00,51.6,49.1,28.95,NNW,328,3.0,19.0,91,0.13,,,0.89,meteohub,2013-01-31 11:58:00,
2013-01-31 07:03:00,50.4,48.2,28.97,WSW,252,6.0,20.0,92,0.16,,,0.93,meteohub,2013-01-31 12:03:00,
2013-01-31 07:08:00,49.8,47.8,28.98,WSW,243,3.0,20.0,93,0.15,,,0.95,meteohub,2013-01-31 12:08:00,
2013-01-31 07:13:00,49.6,48.0,28.96,WSW,251,5.0,24.0,94,0.15,,,0.97,meteohub,2013-01-31 12:13:00,
2013-01-31 07:18:00,47.1,44.1,28.98,West,281,7.0,29.0,89,0.18,,,0.98,meteohub,2013-01-31 12:18:00,
2013-01-31 07:23:00,44.2,41.7,28.97,NNW,339,22.0,29.0,91,0.17,,,1.01,meteohub,2013-01-31 12:23:00,
2013-01-31 07:28:00,42.4,39.9,28.99,WNW,294,8.0,29.0,91,0.19,,,1.03,meteohub,2013-01-31 12:28:00,
2013-01-31 07:33:00,41.2,38.8,29.03,WNW,298,13.0,28.0,91,0.19,,,1.04,meteohub,2013-01-31 12:33:00,
2013-01-31 07:38:00,40.1,37.8,29.02,NW,320,15.0,28.0,91,0.20,,,1.05,meteohub,2013-01-31 12:38:00,
2013-01-31 07:43:00,39.6,37.4,29.04,NW,319,13.0,22.0,92,0.22,,,1.07,meteohub,2013-01-31 12:43:00,
2013-01-31 07:48:00,39.0,36.9,29.05,West,279,4.0,22.0,92,0.22,,,1.07,meteohub,2013-01-31 12:48:00,
2013-01-31 07:53:00,39.0,37.2,29.06,WSW,242,5.0,22.0,93,0.22,,,1.07,meteohub,2013-01-31 12:53:00,
2013-01-31 07:58:00,39.0,37.4,29.07,WSW,241,6.0,22.0,94,0.16,,,1.08,meteohub,2013-01-31 12:58:00,
2013-01-31 08:03:00,39.0,37.4,29.06,West,281,5.0,20.0,94,0.15,,,1.09,meteohub,2013-01-31 13:03:00,
2013-01-31 08:08:00,38.8,37.0,29.07,NW,313,7.0,14.0,93,0.13,,,1.09,meteohub,2013-01-31 13:08:00,
2013-01-31 08:13:00,38.5,36.3,29.07,WSW,242,6.0,16.0,92,0.11,,,1.09,meteohub,2013-01-31 13:13:00,
2013-01-31 08:18:00,38.1,35.8,29.09,NW,305,6.0,16.0,91,0.09,,,1.10,meteohub,2013-01-31 13:18:00,
2013-01-31 08:23:00,37.8,35.4,29.08,West,259,5.0,17.0,91,0.08,,,1.10,meteohub,2013-01-31 13:23:00,
2013-01-31 08:28:00,37.2,34.9,29.09,WSW,253,10.0,17.0,91,0.07,,,1.10,meteohub,2013-01-31 13:28:00,
2013-01-31 08:33:00,37.0,34.7,29.08,WNW,286,4.0,16.0,91,0.06,,,1.10,meteohub,2013-01-31 13:33:00,
2013-01-31 08:38:00,36.9,34.5,29.09,West,281,3.0,18.0,91,0.06,,,1.11,meteohub,2013-01-31 13:38:00,
2013-01-31 08:43:00,36.3,34.0,29.10,West,264,2.0,18.0,91,0.04,,,1.11,meteohub,2013-01-31 13:43:00,
2013-01-31 08:48:00,36.1,34.3,29.10,NW,307,3.0,19.0,93,0.04,,,1.11,meteohub,2013-01-31 13:48:00,
2013-01-31 08:53:00,36.0,33.8,29.10,WNW,285,11.0,19.0,92,0.03,,,1.11,meteohub,2013-01-31 13:53:00,
2013-01-31 08:58:00,36.0,34.2,29.11,SSW,209,2.0,19.0,93,0.02,,,1.11,meteohub,2013-01-31 13:58:00,
2013-01-31 09:03:00,36.0,34.2,29.10,West,260,8.0,16.0,93,0.02,,,1.11,meteohub,2013-01-31 14:03:00,
2013-01-31 09:08:00,36.0,34.2,29.11,West,259,7.0,16.0,93,0.03,,,1.12,meteohub,2013-01-31 14:08:00,
2013-01-31 09:13:00,35.8,33.6,29.11,West,265,9.0,15.0,92,0.02,,,1.12,meteohub,2013-01-31 14:13:00,
2013-01-31 09:18:00,35.4,33.3,29.12,WNW,292,5.0,20.0,92,0.02,,,1.12,meteohub,2013-01-31 14:18:00,
2013-01-31 09:23:00,35.2,33.1,29.12,NW,326,10.0,20.0,92,0.02,,,1.12,meteohub,2013-01-31 14:23:00,
2013-01-31 09:29:00,35.2,32.9,29.13,WNW,297,7.0,20.0,91,0.02,,,1.12,meteohub,2013-01-31 14:29:00,
2013-01-31 09:33:00,35.2,32.9,29.13,West,279,5.0,19.0,91,0.02,,,1.12,meteohub,2013-01-31 14:33:00,
2013-01-31 09:39:00,35.1,32.7,29.13,WSW,251,12.0,19.0,91,0.01,,,1.12,meteohub,2013-01-31 14:39:00,
2013-01-31 09:44:00,34.9,32.5,29.13,West,275,5.0,17.0,91,0.01,,,1.12,meteohub,2013-01-31 14:44:00,
2013-01-31 09:49:00,34.5,32.2,29.13,West,281,11.0,20.0,91,0.01,,,1.12,meteohub,2013-01-31 14:49:00,
2013-01-31 09:54:00,34.5,32.2,29.13,WNW,282,15.0,21.0,91,0.01,,,1.12,meteohub,2013-01-31 14:54:00,
2013-01-31 09:59:00,34.5,31.6,29.13,West,267,7.0,21.0,89,0.01,,,1.12,meteohub,2013-01-31 14:59:00,
2013-01-31 10:04:00,34.3,30.6,29.13,West,275,15.0,23.0,86,0.01,,,1.12,meteohub,2013-01-31 15:04:00,
2013-01-31 10:09:00,34.7,30.0,29.13,NW,322,19.0,23.0,83,0.01,,,1.13,meteohub,2013-01-31 15:09:00,
2013-01-31 10:14:00,34.9,30.6,29.15,NW,315,3.0,23.0,84,0.01,,,1.13,meteohub,2013-01-31 15:14:00,
2013-01-31 10:19:00,34.2,28.9,29.15,NE,53,6.0,23.0,81,0.01,,,1.13,meteohub,2013-01-31 15:19:00,
2013-01-31 10:24:00,34.2,28.9,29.15,NW,310,5.0,24.0,81,0.01,,,1.13,meteohub,2013-01-31 15:24:00,
2013-01-31 10:29:00,34.2,28.4,29.16,NW,312,9.0,27.0,79,0.01,,,1.13,meteohub,2013-01-31 15:29:00,
2013-01-31 10:34:00,34.5,27.5,29.17,North,355,9.0,27.0,75,0.01,,,1.13,meteohub,2013-01-31 15:34:00,
2013-01-31 10:39:00,34.3,27.9,29.18,West,267,13.0,25.0,77,0.01,,,1.13,meteohub,2013-01-31 15:39:00,
2013-01-31 10:44:00,33.8,27.0,29.18,West,259,7.0,25.0,76,0.01,,,1.13,meteohub,2013-01-31 15:44:00,
2013-01-31 10:49:00,33.4,26.8,29.19,West,275,4.0,23.0,76,0.01,,,1.13,meteohub,2013-01-31 15:49:00,
2013-01-31 10:54:00,33.3,27.1,29.20,NNW,335,3.0,27.0,78,0.01,,,1.13,meteohub,2013-01-31 15:54:00,
2013-01-31 10:59:00,32.9,26.8,29.20,SW,235,8.0,27.0,78,0.01,,,1.13,meteohub,2013-01-31 15:59:00,
2013-01-31 11:04:00,32.5,25.2,29.21,WNW,303,5.0,27.0,74,0.01,,,1.13,meteohub,2013-01-31 16:04:00,
2013-01-31 11:09:00,32.7,25.7,29.21,NW,314,22.0,27.0,75,0.00,,,1.13,meteohub,2013-01-31 16:09:00,
2013-01-31 11:14:00,32.5,24.4,29.22,West,265,9.0,27.0,72,0.00,,,1.13,meteohub,2013-01-31 16:14:00,
2013-01-31 11:19:00,32.4,25.0,29.22,WNW,298,15.0,28.0,74,0.00,,,1.13,meteohub,2013-01-31 16:19:00,
2013-01-31 11:24:00,32.4,25.3,29.21,West,277,16.0,28.0,75,0.00,,,1.13,meteohub,2013-01-31 16:24:00,
2013-01-31 11:29:00,32.0,24.6,29.21,WSW,243,10.0,28.0,74,0.00,,,1.13,meteohub,2013-01-31 16:29:00,
2013-01-31 11:34:00,31.8,24.1,29.21,NW,320,6.0,20.0,73,0.00,,,1.13,meteohub,2013-01-31 16:34:00,
2013-01-31 11:39:00,32.2,24.3,29.21,NW,323,11.0,20.0,72,0.00,,,1.13,meteohub,2013-01-31 16:39:00,
2013-01-31 11:44:00,31.6,23.4,29.22,WNW,292,8.0,20.0,71,0.00,,,1.13,meteohub,2013-01-31 16:44:00,
2013-01-31 11:49:00,31.8,23.9,29.23,WSW,246,4.0,23.0,72,0.00,,,1.13,meteohub,2013-01-31 16:49:00,
2013-01-31 11:54:00,32.2,22.8,29.23,WNW,283,12.0,23.0,68,0.00,,,1.13,meteohub,2013-01-31 16:54:00,
2013-01-31 11:59:00,31.6,21.9,29.23,ESE,107,5.0,22.0,67,0.00,,,1.13,meteohub,2013-01-31 16:59:00,
2013-01-31 12:04:00,31.3,21.9,29.24,WSW,244,13.0,22.0,68,0.00,,,1.13,meteohub,2013-01-31 17:04:00,
2013-01-31 12:09:00,30.9,22.6,29.25,West,278,7.0,22.0,71,0.00,,,1.13,meteohub,2013-01-31 17:09:00,
2013-01-31 12:14:00,30.7,23.2,29.25,WSW,248,7.0,21.0,73,0.00,,,1.13,meteohub,2013-01-31 17:14:00,
2013-01-31 12:19:00,30.7,22.8,29.25,WNW,290,10.0,19.0,72,0.00,,,1.13,meteohub,2013-01-31 17:19:00,
2013-01-31 12:24:00,30.9,23.0,29.25,WNW,302,18.0,19.0,72,0.00,,,1.13,meteohub,2013-01-31 17:24:00,
2013-01-31 12:29:00,30.6,21.9,29.26,North,10,4.0,18.0,70,0.00,,,1.13,meteohub,2013-01-31 17:29:00,
2013-01-31 12:34:00,30.6,22.3,29.26,WNW,293,8.0,21.0,71,0.00,,,1.13,meteohub,2013-01-31 17:34:00,
2013-01-31 12:39:00,30.6,22.3,29.25,WSW,238,7.0,21.0,71,0.00,,,1.13,meteohub,2013-01-31 17:39:00,
2013-01-31 12:44:00,30.7,21.7,29.25,NW,309,7.0,21.0,69,0.00,,,1.13,meteohub,2013-01-31 17:44:00,
2013-01-31 12:49:00,30.9,21.6,29.25,West,271,2.0,23.0,68,0.00,,,1.13,meteohub,2013-01-31 17:49:00,
2013-01-31 12:54:00,30.6,20.5,29.26,West,264,10.0,24.0,66,0.00,,,1.13,meteohub,2013-01-31 17:54:00,
2013-01-31 12:59:00,30.7,21.0,29.25,WNW,297,18.0,24.0,67,0.00,,,1.13,meteohub,2013-01-31 17:59:00,
2013-01-31 13:04:00,30.9,20.5,29.25,West,279,8.0,28.0,65,0.00,,,1.13,meteohub,2013-01-31 18:04:00,
2013-01-31 13:09:00,31.3,20.5,29.26,WNW,297,11.0,28.0,64,0.00,,,1.13,meteohub,2013-01-31 18:09:00,
2013-01-31 13:14:00,31.5,19.9,29.26,NE,34,14.0,28.0,62,0.00,,,1.13,meteohub,2013-01-31 18:14:00,
2013-01-31 13:19:00,30.9,18.7,29.25,West,263,11.0,26.0,60,0.00,,,1.13,meteohub,2013-01-31 18:19:00,
2013-01-31 13:24:00,30.6,19.0,29.26,NW,317,10.0,26.0,62,0.00,,,1.13,meteohub,2013-01-31 18:24:00,
2013-01-31 13:29:00,30.4,19.2,29.27,WNW,286,11.0,26.0,63,0.00,,,1.13,meteohub,2013-01-31 18:29:00,
2013-01-31 13:34:00,30.2,19.0,29.27,WSW,250,3.0,25.0,63,0.00,,,1.13,meteohub,2013-01-31 18:34:00,
2013-01-31 13:39:00,30.2,19.6,29.27,WNW,294,11.0,27.0,64,0.00,,,1.13,meteohub,2013-01-31 18:39:00,
2013-01-31 13:44:00,30.0,19.4,29.28,WNW,289,10.0,27.0,64,0.00,,,1.13,meteohub,2013-01-31 18:44:00,
2013-01-31 13:50:00,29.8,18.9,29.28,SW,236,8.0,27.0,63,0.00,,,1.13,meteohub,2013-01-31 18:50:00,
2013-01-31 13:55:00,29.7,18.3,29.29,WSW,254,8.0,27.0,62,0.00,,,1.13,meteohub,2013-01-31 18:55:00,
2013-01-31 14:00:00,29.7,17.8,29.30,NNW,330,17.0,27.0,61,0.00,,,1.13,meteohub,2013-01-31 19:00:00,
2013-01-31 14:05:00,29.7,18.3,29.30,WNW,298,9.0,25.0,62,0.00,,,1.13,meteohub,2013-01-31 19:05:00,
2013-01-31 14:10:00,29.5,18.5,29.30,WSW,252,12.0,20.0,63,0.00,,,1.13,meteohub,2013-01-31 19:10:00,
2013-01-31 14:15:00,29.3,19.0,29.30,West,276,20.0,24.0,65,0.00,,,1.13,meteohub,2013-01-31 19:15:00,
2013-01-31 14:20:00,28.9,17.2,29.30,NW,307,4.0,24.0,61,0.00,,,1.13,meteohub,2013-01-31 19:20:00,
2013-01-31 14:25:00,28.8,16.7,29.31,NW,312,8.0,26.0,60,0.00,,,1.13,meteohub,2013-01-31 19:25:00,
2013-01-31 14:30:00,29.1,16.9,29.31,NW,306,17.0,28.0,60,0.00,,,1.13,meteohub,2013-01-31 19:30:00,
2013-01-31 14:35:00,29.3,16.7,29.32,WNW,294,9.0,28.0,59,0.00,,,1.13,meteohub,2013-01-31 19:35:00,
2013-01-31 14:40:00,29.1,16.5,29.31,NW,323,19.0,28.0,59,0.00,,,1.13,meteohub,2013-01-31 19:40:00,
2013-01-31 14:45:00,28.9,16.3,29.31,West,263,8.0,30.0,59,0.00,,,1.13,meteohub,2013-01-31 19:45:00,
2013-01-31 14:50:00,28.9,17.2,29.33,West,263,15.0,30.0,61,0.00,,,1.13,meteohub,2013-01-31 19:50:00,
2013-01-31 14:55:00,28.8,17.8,29.33,WNW,286,3.0,30.0,63,0.00,,,1.13,meteohub,2013-01-31 19:55:00,
2013-01-31 15:00:00,28.8,16.7,29.33,West,261,11.0,26.0,60,0.00,,,1.13,meteohub,2013-01-31 20:00:00,
2013-01-31 15:05:00,28.8,16.7,29.33,WNW,283,16.0,26.0,60,0.00,,,1.13,meteohub,2013-01-31 20:05:00,
2013-01-31 15:10:00,28.9,16.0,29.34,NW,306,7.0,27.0,58,0.00,,,1.13,meteohub,2013-01-31 20:10:00,
2013-01-31 15:15:00,28.0,15.3,29.34,West,273,27.0,28.0,58,0.00,,,1.13,meteohub,2013-01-31 20:15:00,
2013-01-31 15:20:00,28.0,14.7,29.34,WSW,245,21.0,28.0,57,0.00,,,1.13,meteohub,2013-01-31 20:20:00,
2013-01-31 15:25:00,28.4,16.3,29.34,WSW,250,15.0,32.0,60,0.00,,,1.13,meteohub,2013-01-31 20:25:00,
2013-01-31 15:30:00,28.0,15.6,29.35,West,265,14.0,36.0,59,0.00,,,1.13,meteohub,2013-01-31 20:30:00,
2013-01-31 15:35:00,27.9,14.5,29.35,West,264,14.0,36.0,57,0.00,,,1.13,meteohub,2013-01-31 20:35:00,
2013-01-31 15:40:00,27.7,14.0,29.34,West,261,20.0,40.0,56,0.00,,,1.13,meteohub,2013-01-31 20:40:00,
2013-01-31 15:45:00,27.3,14.5,29.35,WNW,283,19.0,40.0,58,0.00,,,1.13,meteohub,2013-01-31 20:45:00,
2013-01-31 15:50:00,27.1,15.1,29.36,West,281,20.0,40.0,60,0.00,,,1.13,meteohub,2013-01-31 20:50:00,
2013-01-31 15:55:00,27.0,15.3,29.36,West,265,12.0,44.0,61,0.00,,,1.13,meteohub,2013-01-31 20:55:00,
2013-01-31 16:00:00,27.1,15.8,29.36,WSW,254,14.0,44.0,62,0.00,,,1.13,meteohub,2013-01-31 21:00:00,
2013-01-31 16:05:00,27.0,15.6,29.37,WSW,251,29.0,37.0,62,0.00,,,1.13,meteohub,2013-01-31 21:05:00,
2013-01-31 16:10:00,27.1,14.7,29.37,WNW,290,36.0,37.0,59,0.00,,,1.13,meteohub,2013-01-31 21:10:00,
2013-01-31 16:15:00,27.3,15.3,29.37,WNW,302,28.0,40.0,60,0.00,,,1.13,meteohub,2013-01-31 21:15:00,
2013-01-31 16:20:00,26.8,15.1,29.37,WSW,249,14.0,40.0,61,0.00,,,1.13,meteohub,2013-01-31 21:20:00,
2013-01-31 16:25:00,26.4,15.6,29.38,West,274,23.0,40.0,63,0.00,,,1.13,meteohub,2013-01-31 21:25:00,
2013-01-31 16:30:00,26.2,15.1,29.39,West,261,14.0,40.0,62,0.00,,,1.13,meteohub,2013-01-31 21:30:00,
2013-01-31 16:35:00,26.1,15.3,29.40,West,262,26.0,40.0,63,0.00,,,1.13,meteohub,2013-01-31 21:35:00,
2013-01-31 16:40:00,25.9,15.4,29.40,West,273,27.0,40.0,64,0.00,,,1.13,meteohub,2013-01-31 21:40:00,
2013-01-31 16:45:00,25.7,14.9,29.40,West,278,13.0,40.0,63,0.00,,,1.13,meteohub,2013-01-31 21:45:00,
2013-01-31 16:50:00,25.5,14.7,29.41,West,279,17.0,40.0,63,0.00,,,1.13,meteohub,2013-01-31 21:50:00,
2013-01-31 16:55:00,25.3,14.5,29.40,West,273,16.0,32.0,63,0.00,,,1.13,meteohub,2013-01-31 21:55:00,
2013-01-31 17:00:00,25.3,14.5,29.41,WSW,252,31.0,32.0,63,0.00,,,1.13,meteohub,2013-01-31 22:00:00,
2013-01-31 17:05:00,25.3,14.2,29.41,West,259,16.0,39.0,62,0.00,,,1.13,meteohub,2013-01-31 22:05:00,
2013-01-31 17:10:00,25.2,13.3,29.42,West,273,23.0,39.0,60,0.00,,,1.13,meteohub,2013-01-31 22:10:00,
2013-01-31 17:15:00,25.2,12.4,29.41,WNW,291,35.0,39.0,58,0.00,,,1.13,meteohub,2013-01-31 22:15:00,
2013-01-31 17:20:00,25.2,12.9,29.42,SW,229,25.0,42.0,59,0.00,,,1.13,meteohub,2013-01-31 22:20:00,
2013-01-31 17:25:00,25.2,12.9,29.42,WNW,286,25.0,42.0,59,0.00,,,1.13,meteohub,2013-01-31 22:25:00,
2013-01-31 17:30:00,25.0,13.5,29.42,WNW,284,23.0,37.0,61,0.00,,,1.13,meteohub,2013-01-31 22:30:00,
2013-01-31 17:35:00,24.6,13.5,29.44,West,281,26.0,37.0,62,0.00,,,1.13,meteohub,2013-01-31 22:35:00,
2013-01-31 17:40:00,24.8,13.6,29.44,West,275,13.0,36.0,62,0.00,,,1.13,meteohub,2013-01-31 22:40:00,
2013-01-31 17:45:00,25.0,13.5,29.44,West,263,15.0,37.0,61,0.00,,,1.13,meteohub,2013-01-31 22:45:00,
2013-01-31 17:51:00,25.2,12.9,29.44,WSW,252,21.0,37.0,59,0.00,,,1.13,meteohub,2013-01-31 22:51:00,
2013-01-31 17:56:00,25.0,13.5,29.45,West,259,25.0,38.0,61,0.00,,,1.13,meteohub,2013-01-31 22:56:00,
2013-01-31 18:01:00,24.6,13.5,29.45,WSW,257,18.0,41.0,62,0.00,,,1.13,meteohub,2013-01-31 23:01:00,
2013-01-31 18:06:00,24.4,12.9,29.45,WSW,242,29.0,41.0,61,0.00,,,1.13,meteohub,2013-01-31 23:06:00,
2013-01-31 18:11:00,24.6,13.1,29.46,SW,231,21.0,41.0,61,0.00,,,1.13,meteohub,2013-01-31 23:11:00,
2013-01-31 18:16:00,24.6,14.2,29.47,WSW,246,20.0,35.0,64,0.00,,,1.13,meteohub,2013-01-31 23:16:00,
2013-01-31 18:21:00,24.4,14.0,29.47,West,259,12.0,35.0,64,0.00,,,1.13,meteohub,2013-01-31 23:21:00,
2013-01-31 18:26:00,24.4,14.0,29.47,West,276,31.0,35.0,64,0.00,,,1.13,meteohub,2013-01-31 23:26:00,
2013-01-31 18:31:00,24.4,14.0,29.47,West,269,13.0,35.0,64,0.00,,,1.13,meteohub,2013-01-31 23:31:00,
2013-01-31 18:36:00,24.3,14.2,29.48,WSW,254,27.0,33.0,65,0.00,,,1.13,meteohub,2013-01-31 23:36:00,
2013-01-31 18:41:00,24.1,14.4,29.48,WSW,253,11.0,33.0,66,0.00,,,1.13,meteohub,2013-01-31 23:41:00,
2013-01-31 18:46:00,23.9,14.2,29.48,West,264,25.0,33.0,66,0.00,,,1.13,meteohub,2013-01-31 23:46:00,
2013-01-31 18:51:00,24.6,14.5,29.48,WNW,300,6.0,38.0,65,0.00,,,1.13,meteohub,2013-01-31 23:51:00,
2013-01-31 18:56:00,24.4,13.3,29.47,SW,231,7.0,38.0,62,0.00,,,1.13,meteohub,2013-01-31 23:56:00,
2013-01-31 19:01:00,24.3,12.7,29.49,NW,309,7.0,38.0,61,0.00,,,1.13,meteohub,2013-02-01 00:01:00,
2013-01-31 19:06:00,24.3,12.4,29.49,WNW,290,12.0,23.0,60,0.00,,,0.00,meteohub,2013-02-01 00:06:00,
2013-01-31 19:11:00,24.3,12.4,29.49,NW,318,12.0,23.0,60,0.00,,,0.00,meteohub,2013-02-01 00:11:00,
2013-01-31 19:16:00,24.1,12.2,29.49,WNW,289,3.0,21.0,60,0.00,,,0.00,meteohub,2013-02-01 00:16:00,
2013-01-31 19:21:00,23.9,12.4,29.49,West,259,3.0,21.0,61,0.00,,,0.00,meteohub,2013-02-01 00:21:00,
2013-01-31 19:26:00,24.1,12.2,29.49,West,261,11.0,22.0,60,0.00,,,0.00,meteohub,2013-02-01 00:26:00,
2013-01-31 19:31:00,23.9,12.0,29.50,WNW,287,5.0,29.0,60,0.00,,,0.00,meteohub,2013-02-01 00:31:00,
2013-01-31 19:36:00,23.9,12.0,29.49,NNW,339,6.0,29.0,60,0.00,,,0.00,meteohub,2013-02-01 00:36:00,
2013-01-31 19:41:00,23.7,11.8,29.50,NW,320,10.0,28.0,60,0.00,,,0.00,meteohub,2013-02-01 00:41:00,
2013-01-31 19:46:00,23.7,11.8,29.50,WNW,296,14.0,28.0,60,0.00,,,0.00,meteohub,2013-02-01 00:46:00,
2013-01-31 19:51:00,23.7,11.8,29.51,West,261,9.0,19.0,60,0.00,,,0.00,meteohub,2013-02-01 00:51:00,
2013-01-31 19:56:00,23.5,11.7,29.51,West,263,6.0,26.0,60,0.00,,,0.00,meteohub,2013-02-01 00:56:00,
2013-01-31 20:01:00,23.5,11.3,29.52,NW,323,7.0,26.0,59,0.00,,,0.00,meteohub,2013-02-01 01:01:00,
2013-01-31 20:06:00,23.5,11.3,29.52,NW,325,12.0,26.0,59,0.00,,,0.00,meteohub,2013-02-01 01:06:00,
2013-01-31 20:11:00,22.5,10.8,29.52,West,265,21.0,24.0,60,0.00,,,0.00,meteohub,2013-02-01 01:11:00,
2013-01-31 20:17:00,22.6,10.0,29.52,WSW,244,17.0,30.0,58,0.00,,,0.00,meteohub,2013-02-01 01:17:00,
2013-01-31 20:22:00,22.5,10.2,29.52,WSW,241,27.0,31.0,59,0.00,,,0.00,meteohub,2013-02-01 01:22:00,
2013-01-31 20:27:00,22.5,9.9,29.53,WSW,238,25.0,33.0,58,0.00,,,0.00,meteohub,2013-02-01 01:27:00,
2013-01-31 20:32:00,22.5,10.2,29.53,WNW,300,10.0,33.0,59,0.00,,,0.00,meteohub,2013-02-01 01:32:00,
2013-01-31 20:37:00,22.5,9.9,29.53,WSW,253,18.0,33.0,58,0.00,,,0.00,meteohub,2013-02-01 01:37:00,
2013-01-31 20:42:00,22.5,9.9,29.52,West,262,16.0,29.0,58,0.00,,,0.00,meteohub,2013-02-01 01:42:00,
2013-01-31 20:47:00,22.5,9.9,29.53,WSW,252,14.0,28.0,58,0.00,,,0.00,meteohub,2013-02-01 01:47:00,
2013-01-31 20:52:00,22.5,9.5,29.53,West,281,15.0,28.0,57,0.00,,,0.00,meteohub,2013-02-01 01:52:00,
2013-01-31 20:57:00,22.1,9.5,29.54,WSW,250,13.0,34.0,58,0.00,,,0.00,meteohub,2013-02-01 01:57:00,
2013-01-31 21:02:00,22.3,9.3,29.54,West,259,10.0,34.0,57,0.00,,,0.00,meteohub,2013-02-01 02:02:00,
2013-01-31 21:07:00,22.1,9.1,29.55,WSW,245,21.0,32.0,57,0.00,,,0.00,meteohub,2013-02-01 02:07:00,
2013-01-31 21:12:00,22.1,9.1,29.54,SW,217,22.0,32.0,57,0.00,,,0.00,meteohub,2013-02-01 02:12:00,
2013-01-31 21:17:00,22.3,9.0,29.54,West,259,12.0,39.0,56,0.00,,,0.00,meteohub,2013-02-01 02:17:00,
2013-01-31 21:22:00,22.3,9.3,29.55,West,271,17.0,39.0,57,0.00,,,0.00,meteohub,2013-02-01 02:22:00,
2013-01-31 21:27:00,22.3,9.3,29.55,WSW,243,15.0,39.0,57,0.00,,,0.00,meteohub,2013-02-01 02:27:00,
2013-01-31 21:32:00,21.9,9.0,29.55,West,274,15.0,31.0,57,0.00,,,0.00,meteohub,2013-02-01 02:32:00,
2013-01-31 21:37:00,22.1,8.8,29.55,West,280,15.0,30.0,56,0.00,,,0.00,meteohub,2013-02-01 02:37:00,
2013-01-31 21:42:00,21.9,9.0,29.56,SW,236,22.0,28.0,57,0.00,,,0.00,meteohub,2013-02-01 02:42:00,
2013-01-31 21:47:00,21.9,8.6,29.56,SW,231,10.0,28.0,56,0.00,,,0.00,meteohub,2013-02-01 02:47:00,
2013-01-31 21:52:00,21.7,8.8,29.56,SW,223,13.0,27.0,57,0.00,,,0.00,meteohub,2013-02-01 02:52:00,
2013-01-31 21:57:00,21.7,9.3,29.56,WSW,241,17.0,26.0,58,0.00,,,0.00,meteohub,2013-02-01 02:57:00,
2013-01-31 22:02:00,21.7,9.7,29.57,WNW,302,24.0,26.0,59,0.00,,,0.00,meteohub,2013-02-01 03:02:00,
2013-01-31 22:07:00,21.7,9.3,29.57,West,266,15.0,28.0,58,0.00,,,0.00,meteohub,2013-02-01 03:07:00,
2013-01-31 22:12:00,21.7,9.3,29.56,WSW,257,14.0,28.0,58,0.00,,,0.00,meteohub,2013-02-01 03:12:00,
2013-01-31 22:17:00,21.6,9.5,29.57,West,271,10.0,28.0,59,0.00,,,0.00,meteohub,2013-02-01 03:17:00,
2013-01-31 22:22:00,21.6,9.1,29.57,West,263,27.0,27.0,58,0.00,,,0.00,meteohub,2013-02-01 03:22:00,
2013-01-31 22:27:00,21.6,9.5,29.57,West,268,10.0,30.0,59,0.00,,,0.00,meteohub,2013-02-01 03:27:00,
2013-01-31 22:32:00,21.4,9.3,29.57,West,279,9.0,30.0,59,0.00,,,0.00,meteohub,2013-02-01 03:32:00,
2013-01-31 22:37:00,21.4,9.7,29.58,SW,226,17.0,30.0,60,0.00,,,0.00,meteohub,2013-02-01 03:37:00,
2013-01-31 22:42:00,21.4,9.3,29.58,WSW,242,23.0,27.0,59,0.00,,,0.00,meteohub,2013-02-01 03:42:00,
2013-01-31 22:47:00,21.4,9.7,29.58,West,278,11.0,26.0,60,0.00,,,0.00,meteohub,2013-02-01 03:47:00,
2013-01-31 22:53:00,21.4,9.7,29.58,West,262,13.0,28.0,60,0.00,,,0.00,meteohub,2013-02-01 03:53:00,
2013-01-31 22:58:00,21.2,9.9,29.57,West,278,8.0,28.0,61,0.00,,,0.00,meteohub,2013-02-01 03:58:00,
2013-01-31 23:03:00,21.4,10.0,29.58,West,270,7.0,28.0,61,0.00,,,0.00,meteohub,2013-02-01 04:03:00,
2013-01-31 23:08:00,21.2,10.6,29.58,WSW,250,12.0,23.0,63,0.00,,,0.00,meteohub,2013-02-01 04:08:00,
2013-01-31 23:13:00,21.4,11.1,29.59,West,277,11.0,23.0,64,0.00,,,0.00,meteohub,2013-02-01 04:13:00,
2013-01-31 23:18:00,21.4,11.5,29.59,West,263,14.0,27.0,65,0.00,,,0.00,meteohub,2013-02-01 04:18:00,
2013-01-31 23:23:00,21.4,11.5,29.59,West,271,11.0,28.0,65,0.00,,,0.00,meteohub,2013-02-01 04:23:00,
2013-01-31 23:28:00,21.4,11.5,29.59,WSW,251,14.0,28.0,65,0.00,,,0.00,meteohub,2013-02-01 04:28:00,
2013-01-31 23:33:00,21.4,11.1,29.59,West,263,8.0,28.0,64,0.00,,,0.00,meteohub,2013-02-01 04:33:00,
2013-01-31 23:38:00,21.4,10.8,29.60,WNW,286,20.0,24.0,63,0.00,,,0.00,meteohub,2013-02-01 04:38:00,
2013-01-31 23:43:00,21.4,10.4,29.60,WSW,257,25.0,27.0,62,0.00,,,0.00,meteohub,2013-02-01 04:43:00,
2013-01-31 23:48:00,21.2,10.6,29.60,West,275,12.0,35.0,63,0.00,,,0.00,meteohub,2013-02-01 04:48:00,
2013-01-31 23:53:00,21.0,11.1,29.60,West,259,13.0,35.0,65,0.00,,,0.00,meteohub,2013-02-01 04:53:00,
2013-01-31 23:58:00,21.0,11.5,29.61,WSW,240,14.0,28.0,66,0.00,,,0.00,meteohub,2013-02-01 04:58:00,